Miscellaneous Local Product
Issued by NWS Hastings, NE

Home | Current Version | Previous Version | Text Only | Print | Product List | Glossary Off
Versions: 1 2 3 4 5 6 7 8 9 10 11 12 13 14 15 16 17 18 19 20 21 22 23 24 25 26 27 28 29 30 31 32 33 34 35 36 37 38 39 40 41 42 43 44 45 46 47 48 49 50

000
AXUS43 KGID 030602
MISGRI

GID CWA HOURLY WEATHER ROUNDUP
NATIONAL WEATHER SERVICE HASTINGS NE
100 AM CDT SUN MAY 03 2015

NOTE: "FAIR" INDICATES FEW OR NO CLOUDS BELOW 12,000 FEET WITH NO
SIGNIFICANT WEATHER AND/OR OBSTRUCTIONS TO VISIBILITY.

...SOUTH CENTRAL NEBRASKA...

CITY           SKY/WX    TMP DP  RH WIND       PRES   REMARKS
GRAND ISLAND   PTCLDY    69  52  54 S17G25    29.72S
HASTINGS       PTCLDY    69  51  52 S10       29.74S
KEARNEY        PTCLDY    68  48  49 S15       29.73S
ORD            PTCLDY    59  47  64 SW3       29.69F
YORK           PTCLDY    68  55  64 S14G23    29.76F
AURORA         PTCLDY    64  54  68 E10       29.75R
LEXINGTON      PTCLDY    65  49  55 W8        29.74R
HOLDREGE       PTCLDY    66  49  53 S10       29.74F
HEBRON         PTCLDY    68  54  60 S15       29.76S

...NEBRASKA PANHANDLE...

CITY           SKY/WX    TMP DP  RH WIND       PRES   REMARKS
CHADRON        MOCLDY    52  41  66 CALM      29.76S
ALLIANCE       MOCLDY    55  42  61 S8        29.79F
SCOTTSBLUFF    CLOUDY    61  40  45 CALM      29.82R
SIDNEY         CLOUDY    53  44  71 SW12      29.87F

...WESTERN AND NORTH CENTRAL NEBRASKA...

CITY           SKY/WX    TMP DP  RH WIND       PRES   REMARKS
VALENTINE      PTCLDY    56  44  64 W6        29.71R
AINSWORTH      PTCLDY    54  47  77 S6        29.70S
ONEILL         CLEAR     65  48  53 SE6       29.71S
BROKEN BOW     MOCLDY    65  42  43 W10       29.72S
IMPERIAL       CLOUDY    63  40  42 SW5       29.79F
NORTH PLATTE   MOCLDY    56  46  69 W3        29.76F
MCCOOK         CLOUDY    64  44  48 W5        29.76F

...EASTERN NEBRASKA...

CITY           SKY/WX    TMP DP  RH WIND       PRES   REMARKS
NORFOLK        MOCLDY    64  52  64 SE18      29.72R
SO SIOUX CITY  CLOUDY    63  55  75 SE8       29.71F
TEKAMAH        CLOUDY    72  49  44 S30G43    29.71F
COLUMBUS       MOCLDY    61  52  72 SE12      29.79R
ALBION         CLEAR     60  54  78 SE13      29.72S
OMAHA EPPLEY   TSTM      62  58  86 W6        29.87R
OFFUTT AFB     TSTM      61  57  88 SE5       29.86F FOG
MILLARD        TSTM      62  58  88 N3        29.87S
LINCOLN        CLOUDY    67  52  58 E16       29.83F
NEBRASKA CITY  CLOUDY    63  51  64 S12       29.81S
BEATRICE       CLOUDY    69  53  57 S15       29.78S
FALLS CITY     CLOUDY    64  53  67 S7        29.83R

...NORTHERN KANSAS...

CITY           SKY/WX    TMP DP  RH WIND       PRES   REMARKS
GOODLAND       CLOUDY    62  44  51 W14       29.86F
HILL CITY      MOCLDY    68  48  48 SW7       29.77S
NORTON         CLEAR     63  45  51 SW7       29.77R
PHILLIPSBURG   CLEAR     72  50  46 S14       29.75S
SMITH CENTER   CLEAR     68  50  52 S12       29.77S
BELOIT         CLEAR     68  52  56 S12       29.76S
HAYS           CLOUDY    70  48  46 SW16G25   29.80R
RUSSELL        CLOUDY    69  52  54 S17       29.78R
CONCORDIA      PTCLDY    68  54  60 S20       29.78S
SALINA         PTCLDY    71  54  54 S18G28    29.80F
TOPEKA         CLOUDY    67  53  61 S8        29.86S



USA.gov is the U.S. government's official web portal to all federal, state and local government web resources and services.